Location: Foligno
(42.9600°N, 12.7050°E)
Time: 21:15:40
(UTC+01:00)

ISS - Pass Details

Date: 15 January 2018
Orbit: 402 x 407 km, 51.6° (Epoch: 17 January)

Event Time Altitude Azimuth Distance (km) Brightness Sun altitude
Exits shadow 05:26:48 40° 120° (ESE) 611 -2.5 -23.5°
Drops below altitude 10° 05:29:01 10° 123° (ESE) 1,459 -0.1 -23.1°
Sets 05:31:05 0° 124° (ESE) 2,316 1.1 -22.7°
